Flag for Laos Weather past 2 weeks in Vientiane, Laos

Now
91 °F

Scattered clouds.


Feels Like: 103 °F
Forecast: 71 / 92 °F
Wind: 5 mph from Southeast

Location: Vientiane Airport

Current Time: Oct 2, 2014 at 5:51:38 PM

Latest Report: Oct 2, 2014 at 5:00 PM


Visibility: N/A

Pressure: 29.74 "Hg

Humidity: 59%

Dew point: 75 °F

Location of VientianeLocation

Historic Weather in Vientiane — Graph

°F

Vientiane temperature yesterday

Maximum temperature yesterday: 90 °F (at 4:00 PM)
Minimum temperature yesterday: 77 °F (at 8:00 AM)
Average temperature yesterday: 83 °F

Past Weeks' High & Low Weather Summary

 TemperatureHumidityPressure
High95 °F (Sep 20, 3:00 PM)100% (Sep 23, 12:00 PM)29.95 "Hg (Sep 23, 12:00 PM)
Low73 °F (Sep 29, 7:00 AM)53% (Sep 20, 3:00 PM)29.53 "Hg (Sep 17, 4:00 PM)
Average84 °F78%29.80 "Hg
* Reported Sep 17 4:00 PM — Oct 2 4:30 PM, Vientiane, Weather by CustomWeather, © 2014

Note: Actual official high and low records may vary slightly from our data, if they occured in-between our weather recording intervals... More about our weather records

Advertising

Vientiane weather history for previous 24 hours

 ConditionsComfort  
Time TempWeatherWind HumidityBarometerVisibility
4:30 PM
Oct 2
93 °FScattered clouds.2 mph56%29.74 "HgN/A
4:00 PM93 °FScattered clouds.2 mph56%29.74 "HgN/A
3:30 PM93 °FScattered clouds.2 mph56%29.77 "HgN/A
3:00 PM93 °FScattered clouds.2 mph56%29.77 "HgN/A
2:30 PM91 °FScattered clouds.2 mph59%29.80 "HgN/A
2:00 PM91 °FScattered clouds.2 mph59%29.80 "HgN/A
1:30 PM90 °FScattered clouds.2 mph63%29.80 "HgN/A
1:00 PM90 °FScattered clouds.2 mph63%29.80 "HgN/A
12:00 PM90 °FScattered clouds.2 mph63%29.83 "HgN/A
11:00 AM88 °FScattered clouds.2 mph70%29.86 "HgN/A
10:30 AM84 °FScattered clouds.2 mph79%29.89 "HgN/A
10:00 AM84 °FScattered clouds.2 mph79%29.89 "HgN/A
9:30 AM84 °FPassing clouds.2 mph79%29.89 "HgN/A
9:00 AM84 °FPassing clouds.2 mph79%29.89 "HgN/A
8:30 AM79 °FPassing clouds.2 mph84%29.92 "Hg4 mi
8:00 AM79 °FPassing clouds.2 mph84%29.92 "Hg4 mi
7:00 AM77 °FPassing clouds.2 mph94%29.86 "HgN/A
6:30 AM79 °FFog.2 mph89%29.86 "Hg2 mi
9:00 PM
Oct 1
82 °FFog.2 mph89%29.83 "Hg2 mi
8:30 PM82 °FClear.2 mph84%29.80 "Hg2 mi
8:00 PM82 °FClear.2 mph84%29.80 "Hg2 mi
7:30 PM84 °FClear.2 mph79%29.77 "HgN/A
7:00 PM84 °FClear.2 mph79%29.77 "HgN/A
6:30 PM86 °FPassing clouds.2 mph84%29.77 "HgN/A
6:00 PM86 °FPassing clouds.2 mph84%29.77 "HgN/A
Weather by CustomWeather, © 2014

See weather overviewHow to use our weather pages